This is the latest recevied weather packets stored in our database for station/object KU9TRY. If no packets are shown the sender has not sent any weather packets the latest 10 day(s).
| Time | Temp. | Humidity | Pressure | Rain* | Wind** | Luminosity | Snow |
|---|---|---|---|---|---|---|---|
| 1788090496 | 20° C | 99% | 1021 hPa | 0 mm | - | 26 W/m² | - |
| 1788090192 | 20° C | 99% | 1021.2 hPa | 0 mm | - | 21 W/m² | - |
| 1788089886 | 19.44° C | 99% | 1020.8 hPa | 0 mm | - | 18 W/m² | - |
| 1788089581 | 19.44° C | 99% | 1021 hPa | 0 mm | - | 14 W/m² | - |
| 1788089277 | 20° C | 99% | 1020.8 hPa | 0 mm | - | 10 W/m² | - |
| 1788088973 | 19.44° C | 99% | 1021 hPa | 0 mm | - | 7 W/m² | - |
| 1788088669 | 19.44° C | 98% | 1021 hPa | 0 mm | - | 5 W/m² | - |
| 1788088364 | 19.44° C | 98% | 1020.8 hPa | 0 mm | - | 2 W/m² | - |
| 1788088064 | 19.44° C | 98% | 1020.7 hPa | 0 mm | - | 1 W/m² | - |
| 1788087761 | 19.44° C | 99% | 1020.7 hPa | 0 mm | - | 1 W/m² | - |
| 1788087460 | 19.44° C | 98% | 1020.5 hPa | 0 mm | - | 0 W/m² | - |
| 1788087156 | 19.44° C | 98% | 1020.7 hPa | 0 mm | - | 0 W/m² | - |
| 1788086852 | 19.44° C | 98% | 1020.7 hPa | 0 mm | - | 0 W/m² | - |
| 1788086549 | 20° C | 99% | 1020.6 hPa | 0 mm | - | 0 W/m² | - |
| 1788086248 | 19.44° C | 99% | 1020.5 hPa | 0 mm | - | 0 W/m² | - |
| 1788085944 | 19.44° C | 98% | 1020.4 hPa | 0 mm | - | 0 W/m² | - |
| 1788085641 | 19.44° C | 98% | 1020.5 hPa | 0 mm | - | 0 W/m² | - |
| 1788085338 | 19.44° C | 98% | 1020.7 hPa | 0 mm | - | 0 W/m² | - |
| 1788085034 | 20° C | 98% | 1020.5 hPa | 0 mm | - | 0 W/m² | - |
| 1788084729 | 20° C | 98% | 1020.4 hPa | 0 mm | - | 0 W/m² | - |
| 1788084423 | 20° C | 98% | 1020.6 hPa | 0 mm | - | 0 W/m² | - |
| 1788084123 | 20° C | 98% | 1020.5 hPa | 0 mm | - | 0 W/m² | - |
| 1788083821 | 20° C | 98% | 1020.4 hPa | 0 mm | - | 0 W/m² | - |
| 1788083518 | 20° C | 98% | 1020.3 hPa | 0 mm | - | 0 W/m² | - |
| 1788083214 | 20° C | 98% | 1020.3 hPa | 0 mm | - | 0 W/m² | - |
* Rain latest hour (hover to see other rain measurements)
** Current wind speed in m/s (hover to see current wind gust speed)